ELECTRON KICK STAGE R/B, 59590

Orbit data source: Space-Track

ELECTRON KICK STAGE R/B, 59590 is space debris in SSO originally from a launch on Tue, 23 Apr 2024 UTC launched from the Rocket Lab Launch Complex (RLLC). Debris objects in space refer to the collection of defunct objects orbiting the Earth. Examples of debris include non-operational satellites, rocket bodies, and fragments generated from explosions, collisions, or faulty payload assembly.

Loading next visibility...
Identifier
59590, 2024-077D
Orbit
SSO
Last TLE update
16 hours ago
Origin
Manufacturer
Rocket Lab
Mission
Spacecraft
Bus & Motor
KICK STAGE, CURIE
Mass
~50 kg wet, ~50 kg dry
Launch date (UTC)
2024-04-23 (1 year ago)
Launch vehicle
Unknown
Launch site
Rocket Lab Launch Complex (RLLC)
Object type
Payload
Rocket body
Debris
Shape & HBR
Unknown
Radar Cross Section
Medium (>0.1 m² and <1 m²)

Expand to show TLE details & history

TLE from 16 hours ago
0 ELECTRON KICK STAGE R/B
1 59590U 24077D   25191.77549080  .00001436  00000-0  14816-3 0  9993
2 59590  97.3407 225.0770 0356995 251.2470 104.9685 14.54513304 64206
Epoch: 2025-07-10T18:36Z
TLE epoch observation values (Epoch: 2025-07-10T18:36:42.405Z)
Latitude
0.00003°
Longitude
16.96338°
Altitude
787.643 km
Speed
7.421 km/s
True Right ascension
15h 00m 18s
True Declination
0° 00' 00"
Sunlit
Object was in daylight at epoch
Visualization orbit readout
Latitude
36.06562°
Longitude
-157.11126°
Altitude
775.177 km
Speed
7.438 km/s
Apparent Right ascension
06h 30m 41s
Apparent Declination
1° 03' 29"
Sunlit
Object is in daylight
Visualization observer readout
Local Sidereal Time
22:27:45
Azimuth
68.298° E
Elevation
-22.337°
Doppler factor
1
Orbital elements
Apogee altitude
960.962 km
Perigee altitude
455.02 km
Semi-major axis
7,086.128 km
Eccentricity
0.0357
Inclination
97.3407°
RAAN
225.077°
Arg. of periapsis
251.247°
True anomaly
Unknown
Mean anomaly
104.9685°
Eccentric anomaly
Unknown
Mean motion
3.63856 °/min
Orbital period
98.94 mins
BSTAR
0.00014816
Loading maneuver chart data...
Loading SW <> Apogee altitude chart data...
Loading historical data...
Loading historical data...
Loading historical data...
Loading historical data...
Loading historical data...
Loading historical data...
Loading historical data...
Other satellites on launch #77 in the year 2024 (2024-04-23 UTC)

ELECTRON KICK STAGE R/B Visibility forecast

Observer location: undefined°, undefined°

Span
Click to sort rows by Start time (UTC) header in descending order
Start Az.
Max El. time (UTC)
Max El. Az.
Max El.
End time (UTC)
End Az.
9 mins2025-07-11 15:00:55.849Z13.103° NNE2025-07-11 15:05:55.849Z69.427° E44.799°2025-07-11 15:09:55.849Z190.105° SSW
10 mins2025-07-12 02:05:55.849Z159.253° S2025-07-12 02:10:55.849Z44.051° NE43.93°2025-07-12 02:15:55.849Z351.995° N
5 mins2025-07-12 03:46:55.849Z247.538° W2025-07-12 03:48:55.849Z269.821° W15.237°2025-07-12 03:51:55.849Z302.129° NW
|